| time (UTC) | temp F | wind direction | speed knots | gust knots | rain 1hr in | rain 24hr in | rain mn in | humidity % | barometer mb |
| 20260505052608 | 53 | 266 | 0.0 | 0.0 | 0.00 | 0.00 | 0.00 | 97 | 1012.3 |
| 20260505052106 | 53 | 260 | 0.0 | 0.0 | 0.00 | 0.00 | 0.00 | 97 | 1012.7 |
| 20260505051602 | 54 | 261 | 0.0 | 0.0 | 0.00 | 0.00 | 0.00 | 97 | 1012.5 |
| 20260505051100 | 54 | 260 | 0.0 | 0.0 | 0.00 | 0.00 | 0.00 | 97 | 1012.4 |
| 20260505050558 | 54 | 263 | 0.0 | 0.0 | 0.00 | 0.00 | 0.00 | 97 | 1012.3 |
| 20260505041526 | 55 | 264 | 0.0 | 0.0 | 0.00 | 0.00 | 0.00 | 95 | 1012.5 |
| 20260505041023 | 55 | 261 | 0.0 | 0.0 | 0.00 | 0.00 | 0.00 | 95 | 1012.6 |
| 20260505040520 | 56 | 251 | 0.0 | 0.0 | 0.00 | 0.00 | 0.00 | 94 | 1012.6 |
| 20260505040018 | 56 | 261 | 0.0 | 0.0 | 0.00 | 0.00 | 0.00 | 94 | 1012.4 |
| 20260505035513 | 56 | 274 | 0.0 | 0.9 | 0.00 | 0.00 | 0.00 | 94 | 1012.6 |
| 20260505035011 | 56 | 267 | 0.0 | 0.0 | 0.00 | 0.00 | 0.00 | 94 | 1012.4 |
| 20260505034507 | 56 | 241 | 1.7 | 2.6 | 0.00 | 0.00 | 0.00 | 94 | 1012.3 |
| 20260505034004 | 57 | 238 | 0.0 | 0.0 | 0.00 | 0.00 | 0.00 | 94 | 1012.6 |
| 20260505033501 | 56 | 269 | 0.0 | 0.0 | 0.00 | 0.00 | 0.00 | 94 | 1012.7 |
| 20260505032959 | 56 | 278 | 0.0 | 0.0 | 0.00 | 0.00 | 0.00 | 94 | 1012.8 |
| 20260505032456 | 56 | 260 | 0.0 | 0.0 | 0.00 | 0.00 | 0.00 | 94 | 1012.7 |
| 20260505031952 | 56 | 181 | 0.0 | 0.9 | 0.00 | 0.00 | 0.00 | 94 | 1012.5 |
| 20260505031449 | 56 | 264 | 0.0 | 0.0 | 0.00 | 0.00 | 0.00 | 94 | 1012.8 |
| 20260505030946 | 56 | 268 | 1.7 | 1.7 | 0.00 | 0.00 | 0.00 | 94 | 1012.6 |
| 20260505030442 | 56 | 105 | 0.9 | 6.1 | 0.00 | 0.00 | 0.00 | 94 | 1012.5 |
| 20260505025937 | 57 | 272 | 0.0 | 0.0 | 0.00 | 0.00 | 0.00 | 94 | 1012.6 |
| 20260505025435 | 56 | 269 | 0.0 | 0.0 | 0.00 | 0.00 | 0.00 | 94 | 1012.5 |
| 20260505024934 | 56 | 253 | 0.0 | 0.9 | 0.00 | 0.00 | 0.00 | 94 | 1012.5 |
| 20260505024431 | 56 | 244 | 0.0 | 0.9 | 0.00 | 0.00 | 0.00 | 94 | 1012.8 |
| 20260505023928 | 56 | 264 | 0.0 | 0.0 | 0.00 | 0.00 | 0.00 | 94 | 1012.7 |
| 20260505023425 | 56 | 27 | 0.9 | 1.7 | 0.00 | 0.00 | 0.00 | 95 | 1012.5 |
| 20260505022922 | 56 | 266 | 0.0 | 0.0 | 0.00 | 0.00 | 0.00 | 94 | 1012.7 |
| 20260505022420 | 56 | 261 | 0.0 | 0.0 | 0.00 | 0.00 | 0.00 | 94 | 1012.8 |
| 20260505021917 | 56 | 35 | 0.9 | 2.6 | 0.00 | 0.00 | 0.00 | 94 | 1012.9 |
| 20260505021413 | 56 | 297 | 0.0 | 0.0 | 0.00 | 0.00 | 0.00 | 94 | 1012.8 |
| 20260505020909 | 56 | 264 | 0.0 | 0.9 | 0.00 | 0.00 | 0.00 | 94 | 1013.0 |
| 20260505020404 | 56 | 225 | 0.0 | 0.0 | 0.00 | 0.00 | 0.00 | 94 | 1012.8 |
| 20260505015901 | 56 | 276 | 0.0 | 0.0 | 0.00 | 0.00 | 0.00 | 93 | 1012.8 |
| 20260505015358 | 56 | 269 | 0.0 | 0.0 | 0.00 | 0.00 | 0.00 | 93 | 1012.6 |
| 20260505014856 | 57 | 261 | 0.0 | 0.0 | 0.00 | 0.00 | 0.00 | 93 | 1012.7 |
| 20260505014353 | 57 | 268 | 0.0 | 0.0 | 0.00 | 0.00 | 0.00 | 92 | 1012.7 |
| 20260505013849 | 57 | 262 | 0.0 | 0.0 | 0.00 | 0.00 | 0.00 | 92 | 1012.7 |
| 20260505013346 | 57 | 258 | 0.0 | 0.0 | 0.00 | 0.00 | 0.00 | 92 | 1012.8 |
| 20260505012845 | 57 | 220 | 0.0 | 0.0 | 0.00 | 0.00 | 0.00 | 91 | 1012.6 |
| 20260505012343 | 57 | 259 | 0.0 | 0.0 | 0.00 | 0.00 | 0.00 | 91 | 1012.5 |
| 20260505011838 | 57 | 266 | 0.0 | 0.0 | 0.00 | 0.00 | 0.00 | 90 | 1012.6 |
| 20260505011335 | 57 | 268 | 0.0 | 0.0 | 0.00 | 0.00 | 0.00 | 90 | 1012.5 |
| 20260505010831 | 57 | 267 | 0.0 | 0.0 | 0.00 | 0.00 | 0.00 | 89 | 1012.6 |
| 20260505010327 | 57 | 298 | 0.0 | 0.0 | 0.00 | 0.00 | 0.00 | 89 | 1012.7 |
| 20260505005823 | 58 | 254 | 0.0 | 0.0 | 0.00 | 0.00 | 0.00 | 88 | 1012.5 |
| 20260505005321 | 58 | 274 | 0.0 | 0.0 | 0.00 | 0.00 | 0.00 | 89 | 1012.6 |
| 20260505004818 | 58 | 262 | 0.0 | 0.0 | 0.00 | 0.00 | 0.00 | 89 | 1012.5 |
| 20260505004314 | 57 | 261 | 0.0 | 0.0 | 0.00 | 0.00 | 0.00 | 89 | 1012.6 |
| 20260505003812 | 58 | 258 | 0.0 | 0.0 | 0.00 | 0.00 | 0.00 | 89 | 1012.6 |
| 20260505003309 | 58 | 263 | 0.0 | 0.0 | 0.00 | 0.00 | 0.00 | 88 | 1012.6 |
| 20260505002805 | 58 | 275 | 0.0 | 0.0 | 0.00 | 0.00 | 0.00 | 88 | 1012.6 |
| 20260505002304 | 58 | 260 | 0.0 | 0.0 | 0.00 | 0.00 | 0.00 | 87 | 1012.4 |
| 20260505001800 | 59 | 266 | 0.0 | 0.0 | 0.00 | 0.00 | 0.00 | 86 | 1012.6 |
| 20260505001257 | 59 | 260 | 0.0 | 0.0 | 0.00 | 0.00 | 0.00 | 85 | 1012.1 |
| 20260505000754 | 59 | 259 | 0.0 | 0.0 | 0.00 | 0.00 | 0.00 | 84 | 1012.3 |
| 20260505000252 | 60 | 263 | 0.0 | 0.0 | 0.00 | 0.00 | 0.00 | 83 | 1012.3 |
| 20260504235748 | 60 | 250 | 0.0 | 0.0 | 0.00 | 0.00 | 0.00 | 83 | 1012.0 |
| 20260504235244 | 60 | 268 | 0.0 | 0.0 | 0.00 | 0.00 | 0.00 | 82 | 1012.2 |
| 20260504234742 | 60 | 264 | 0.0 | 0.0 | 0.00 | 0.00 | 0.00 | 82 | 1012.1 |
| 20260504234239 | 60 | 288 | 0.0 | 0.0 | 0.00 | 0.00 | 0.00 | 82 | 1012.0 |
| 20260504233735 | 60 | 252 | 0.0 | 0.0 | 0.00 | 0.00 | 0.00 | 81 | 1011.8 |
| 20260504233231 | 61 | 226 | 0.0 | 0.0 | 0.00 | 0.00 | 0.00 | 80 | 1011.9 |
| 20260504232729 | 61 | 240 | 0.0 | 0.0 | 0.00 | 0.00 | 0.00 | 79 | 1012.0 |
| 20260504232225 | 62 | 264 | 0.0 | 0.0 | 0.00 | 0.00 | 0.00 | 79 | 1011.9 |
| 20260504231722 | 62 | 288 | 0.0 | 0.0 | 0.00 | 0.00 | 0.00 | 78 | 1012.0 |
| 20260504231218 | 62 | 265 | 0.0 | 0.0 | 0.00 | 0.00 | 0.00 | 78 | 1011.9 |
| 20260504230714 | 62 | 265 | 0.0 | 0.0 | 0.00 | 0.00 | 0.00 | 77 | 1011.9 |
| 20260504230214 | 62 | 210 | 0.0 | 0.0 | 0.00 | 0.00 | 0.00 | 76 | 1011.8 |
| 20260504225712 | 63 | 297 | 0.0 | 0.0 | 0.00 | 0.00 | 0.00 | 76 | 1011.9 |
| 20260504225208 | 63 | 262 | 0.0 | 0.0 | 0.00 | 0.00 | 0.00 | 76 | 1011.9 |
| 20260504224705 | 63 | 256 | 0.0 | 0.0 | 0.00 | 0.00 | 0.00 | 76 | 1011.8 |
| 20260504224202 | 63 | 257 | 0.0 | 0.0 | 0.00 | 0.00 | 0.00 | 76 | 1011.9 |
| 20260504223659 | 63 | 267 | 0.0 | 0.0 | 0.00 | 0.00 | 0.00 | 76 | 1012.0 |
| 20260504223154 | 63 | 263 | 0.0 | 0.0 | 0.00 | 0.00 | 0.00 | 76 | 1011.8 |
| 20260504222651 | 63 | 317 | 0.0 | 0.0 | 0.00 | 0.00 | 0.00 | 75 | 1011.8 |
| 20260504222148 | 63 | 312 | 0.0 | 0.0 | 0.00 | 0.00 | 0.00 | 75 | 1011.9 |
| 20260504221645 | 64 | 271 | 0.0 | 0.0 | 0.00 | 0.00 | 0.00 | 75 | 1011.7 |
| 20260504221143 | 64 | 240 | 0.0 | 0.0 | 0.00 | 0.00 | 0.00 | 74 | 1011.7 |
| 20260504220639 | 64 | 243 | 0.0 | 0.0 | 0.00 | 0.00 | 0.00 | 73 | 1011.7 |
| 20260504220137 | 65 | 274 | 0.0 | 0.0 | 0.00 | 0.00 | 0.00 | 73 | 1012.0 |
| 20260504215632 | 65 | 270 | 0.0 | 0.0 | 0.00 | 0.00 | 0.00 | 73 | 1011.7 |
| 20260504215130 | 65 | 235 | 0.0 | 0.0 | 0.00 | 0.00 | 0.00 | 73 | 1011.9 |
| 20260504214626 | 65 | 245 | 0.0 | 0.0 | 0.00 | 0.00 | 0.00 | 73 | 1011.7 |
| 20260504214122 | 66 | 260 | 0.0 | 0.0 | 0.00 | 0.00 | 0.00 | 73 | 1012.0 |
| 20260504213619 | 66 | 252 | 0.0 | 0.0 | 0.00 | 0.00 | 0.00 | 74 | 1011.8 |
| 20260504213116 | 66 | 281 | 0.0 | 0.0 | 0.00 | 0.00 | 0.00 | 73 | 1011.8 |
| 20260504212612 | 66 | 254 | 0.0 | 0.0 | 0.00 | 0.00 | 0.00 | 73 | 1011.8 |
| 20260504212109 | 66 | 243 | 0.0 | 0.0 | 0.00 | 0.00 | 0.00 | 73 | 1012.0 |
| 20260504211606 | 67 | 247 | 0.0 | 0.0 | 0.00 | 0.00 | 0.00 | 73 | 1012.0 |
| 20260504211103 | 67 | 271 | 0.0 | 0.0 | 0.00 | 0.00 | 0.00 | 71 | 1012.1 |
| 20260504210600 | 67 | 269 | 0.0 | 0.0 | 0.00 | 0.00 | 0.00 | 71 | 1012.1 |
| 20260504210056 | 66 | 270 | 0.0 | 0.0 | 0.00 | 0.00 | 0.00 | 71 | 1012.2 |
| 20260504205554 | 67 | 228 | 0.0 | 0.0 | 0.00 | 0.00 | 0.00 | 71 | 1012.2 |
| 20260504205052 | 67 | 262 | 0.0 | 0.0 | 0.00 | 0.00 | 0.00 | 71 | 1012.3 |
| 20260504204550 | 67 | 272 | 0.0 | 0.0 | 0.00 | 0.00 | 0.00 | 72 | 1012.3 |
| 20260504204043 | 65 | 262 | 0.0 | 0.0 | 0.00 | 0.00 | 0.00 | 73 | 1012.3 |
| 20260504203541 | 66 | 257 | 0.0 | 0.0 | 0.00 | 0.00 | 0.00 | 73 | 1012.4 |
| 20260504203038 | 66 | 220 | 0.0 | 0.0 | 0.00 | 0.00 | 0.00 | 73 | 1012.6 |
| 20260504202533 | 66 | 261 | 0.0 | 0.0 | 0.00 | 0.00 | 0.00 | 73 | 1012.5 |
| 20260504202030 | 65 | 271 | 0.0 | 0.0 | 0.00 | 0.00 | 0.00 | 74 | 1012.4 |
| 20260504201527 | 66 | 250 | 0.0 | 0.0 | 0.00 | 0.00 | 0.00 | 72 | 1012.6 |
| 20260504201025 | 66 | 324 | 0.0 | 0.0 | 0.00 | 0.00 | 0.00 | 72 | 1012.8 |
| 20260504200521 | 68 | 277 | 0.0 | 0.0 | 0.00 | 0.00 | 0.00 | 71 | 1012.7 |
| 20260504200018 | 68 | 272 | 0.0 | 0.0 | 0.00 | 0.00 | 0.00 | 71 | 1012.6 |
| 20260504195514 | 67 | 271 | 0.0 | 0.0 | 0.00 | 0.00 | 0.00 | 73 | 1012.5 |
| 20260504195011 | 67 | 263 | 0.0 | 0.0 | 0.00 | 0.00 | 0.00 | 71 | 1012.8 |
| 20260504194508 | 67 | 280 | 0.0 | 0.0 | 0.00 | 0.00 | 0.00 | 72 | 1013.1 |
| 20260504194002 | 67 | 282 | 0.0 | 0.0 | 0.00 | 0.00 | 0.00 | 72 | 1013.0 |
| 20260504193455 | 66 | 244 | 0.0 | 0.0 | 0.00 | 0.00 | 0.00 | 73 | 1013.2 |
| 20260504192954 | 67 | 268 | 0.0 | 0.0 | 0.00 | 0.00 | 0.00 | 73 | 1013.3 |
| 20260504192450 | 66 | 266 | 0.0 | 0.0 | 0.00 | 0.00 | 0.00 | 74 | 1013.1 |
| 20260504191949 | 66 | 267 | 0.0 | 0.0 | 0.00 | 0.00 | 0.00 | 73 | 1013.2 |
| 20260504191447 | 67 | 258 | 0.0 | 0.0 | 0.00 | 0.00 | 0.00 | 72 | 1013.1 |
| 20260504190942 | 67 | 274 | 0.0 | 0.0 | 0.00 | 0.00 | 0.00 | 72 | 1013.1 |
| 20260504190438 | 67 | 250 | 0.0 | 0.0 | 0.00 | 0.00 | 0.00 | 72 | 1013.4 |
| 20260504185935 | 68 | 167 | 0.0 | 0.0 | 0.00 | 0.00 | 0.00 | 72 | 1013.2 |
| 20260504185432 | 67 | 273 | 0.0 | 0.0 | 0.00 | 0.00 | 0.00 | 72 | 1013.5 |
| 20260504184928 | 67 | 259 | 0.0 | 0.0 | 0.00 | 0.00 | 0.00 | 72 | 1013.6 |
| 20260504184424 | 67 | 228 | 0.0 | 0.0 | 0.00 | 0.00 | 0.00 | 69 | 1013.6 |
| 20260504183920 | 66 | 288 | 0.0 | 0.0 | 0.00 | 0.00 | 0.00 | 71 | 1013.6 |
| 20260504183417 | 67 | 142 | 0.0 | 0.0 | 0.00 | 0.00 | 0.00 | 71 | 1013.3 |
| 20260504182915 | 67 | 289 | 0.0 | 0.0 | 0.00 | 0.00 | 0.00 | 71 | 1013.6 |
| 20260504182412 | 67 | 291 | 0.0 | 0.0 | 0.00 | 0.00 | 0.00 | 70 | 1013.7 |
| 20260504181909 | 67 | 282 | 0.0 | 0.0 | 0.00 | 0.00 | 0.00 | 68 | 1013.6 |
| 20260504181406 | 67 | 285 | 0.0 | 0.0 | 0.00 | 0.00 | 0.00 | 69 | 1013.7 |
| 20260504180905 | 67 | 267 | 0.0 | 0.0 | 0.00 | 0.00 | 0.00 | 70 | 1013.9 |
| 20260504180403 | 68 | 255 | 0.0 | 0.0 | 0.00 | 0.00 | 0.00 | 68 | 1013.8 |
| 20260504175901 | 68 | 268 | 3.5 | 4.3 | 0.00 | 0.00 | 0.00 | 65 | 1013.8 |
| 20260504175357 | 68 | 265 | 2.6 | 4.3 | 0.00 | 0.00 | 0.00 | 66 | 1014.2 |
| 20260504174855 | 68 | 271 | 1.7 | 1.7 | 0.00 | 0.00 | 0.00 | 67 | 1014.1 |
| 20260504174353 | 69 | 241 | 3.5 | 4.3 | 0.00 | 0.00 | 0.00 | 65 | 1013.9 |
| 20260504173850 | 69 | 272 | 1.7 | 2.6 | 0.00 | 0.00 | 0.00 | 66 | 1014.0 |
| 20260504173346 | 68 | 275 | 0.9 | 0.9 | 0.00 | 0.00 | 0.00 | 68 | 1013.9 |
| 20260504172844 | 68 | 278 | 3.5 | 7.8 | 0.00 | 0.00 | 0.00 | 68 | 1014.2 |
| 20260504172340 | 68 | 287 | 2.6 | 4.3 | 0.00 | 0.00 | 0.00 | 67 | 1014.1 |
| 20260504171836 | 68 | 264 | 2.6 | 2.6 | 0.00 | 0.00 | 0.00 | 67 | 1014.2 |
| 20260504171333 | 68 | 250 | 1.7 | 1.7 | 0.00 | 0.00 | 0.00 | 68 | 1014.3 |
| 20260504170830 | 68 | 284 | 2.6 | 4.3 | 0.00 | 0.00 | 0.00 | 69 | 1014.4 |
| 20260504170327 | 68 | 270 | 3.5 | 5.2 | 0.00 | 0.00 | 0.00 | 68 | 1014.3 |
| 20260504160245 | 70 | 272 | 1.7 | 2.6 | 0.00 | 0.00 | 0.00 | 66 | 1014.9 |
| 20260504150711 | 68 | 234 | 0.9 | 1.7 | 0.00 | 0.00 | 0.00 | 59 | 1015.4 |
| 20260504150208 | 67 | 259 | 1.7 | 2.6 | 0.00 | 0.00 | 0.00 | 62 | 1015.4 |
| 20260504141136 | 66 | 247 | 4.3 | 5.2 | 0.00 | 0.00 | 0.00 | 61 | 1015.3 |
| 20260504140633 | 65 | 238 | 1.7 | 2.6 | 0.00 | 0.00 | 0.00 | 63 | 1015.5 |
| 20260504140129 | 65 | 286 | 4.3 | 6.1 | 0.00 | 0.00 | 0.00 | 61 | 1015.6 |
| 20260504130557 | 61 | 241 | 2.6 | 2.6 | 0.00 | 0.00 | 0.00 | 71 | 1016.0 |
| 20260504110444 | 52 | 268 | 0.0 | 0.0 | 0.00 | 0.00 | 0.00 | 84 | 1016.9 |
| 20260504100401 | 48 | 265 | 0.0 | 0.0 | 0.00 | 0.00 | 0.00 | 83 | 1016.9 |
| 20260504081754 | 47 | 267 | 0.0 | 0.0 | 0.00 | 0.00 | 0.00 | 78 | 1017.0 |
| 20260504081250 | 47 | 254 | 0.9 | 0.9 | 0.00 | 0.00 | 0.00 | 77 | 1016.7 |
| 20260504080747 | 48 | 262 | 0.0 | 0.9 | 0.00 | 0.00 | 0.00 | 76 | 1016.9 |
| 20260504080243 | 48 | 271 | 0.0 | 0.0 | 0.00 | 0.00 | 0.00 | 76 | 1016.8 |
| 20260504070211 | 45 | 268 | 0.0 | 0.0 | 0.00 | 0.00 | 0.00 | 82 | 1016.5 |